[[{"header":{"parameterUnit":"m.s-1","parameterCategory":2,"la1":30.2991,"la2":30.254,"lo1":-89.0895,"lo2":-89.0444,"dy":0.0017,"dx":0.0017,"nx":28,"ny":28,"refTime":"2023-11-17T03:00:00:Z","depth":"0","parameterNumber":2,"parameterNumberName":"U-component_of_CURRENTS"},"data":[0,0,0,0,0,0,0,0,0,0,0,0,0,0,0,0,0,0,0,0,0,0,0,0,0,0,0,0,0,0,0,0,0,0,0,0,0,0,0,0,0,0,0,0,0,0,0,0,0,0,0,0,0,0,0,0,0,0,-0.2214,-0.2215,0,-0.2227,-0.2227,-0.2227,-0.2201,-0.22,-0.22,-0.2199,-0.2123,-0.2122,-0.2121,0,0,0,0,0,0,0,0,0,0,0,0,0,-0.2117,-0.2119,-0.2214,-0.2215,-0.2215,-0.2227,-0.2227,-0.2227,-0.2201,-0.22,-0.2199,-0.2199,-0.2124,-0.2122,-0.2121,0,0,0,0,0,0,0,0,0,0,0,0,0,-0.2146,-0.2119,-0.2214,-0.2204,-0.2203,-0.2227,-0.2227,-0.2227,-0.2202,-0.22,-0.2199,-0.2198,-0.2124,-0.2123,-0.2121,-0.2132,0,0,-0.2115,-0.2114,0,0,0,0,0,0,0,0,-0.2145,-0.215,-0.2205,-0.2205,-0.2204,-0.2212,-0.2165,-0.2191,-0.2202,-0.2201,-0.2199,-0.2198,-0.2146,-0.2143,-0.2148,-0.2128,-0.2125,-0.2115,-0.2113,-0.2112,-0.2112,0,0,0,0,0,0,0,-0.2143,-0.2149,-0.2219,-0.2206,-0.2205,-0.2181,-0.2185,-0.217,-0.2178,-0.2201,-0.22,-0.2203,-0.2145,-0.215,-0.2145,-0.2124,-0.2115,-0.2113,-0.2112,-0.2111,-0.2119,-0.212,0,0,0,0,0,0,-0.2148,-0.2148,-0.2218,-0.2219,-0.2172,-0.2184,-0.2188,-0.221,-0.218,-0.2175,-0.2204,-0.2202,-0.2153,-0.2148,-0.2142,-0.2165,-0.2113,-0.2111,-0.211,-0.2118,-0.2119,-0.2121,0,0,0,0,0,0,-0.2146,-0.2155,-0.2218,-0.2183,-0.2189,-0.2188,-0.2212,-0.2211,-0.2215,-0.2183,-0.2176,-0.2209,-0.2152,-0.2145,-0.2149,-0.2161,-0.211,-0.2108,-0.2116,-0.2118,-0.212,-0.2203,0,0,0,0,0,0,-0.2143,-0.2154,-0.2168,-0.2184,-0.2191,-0.2243,-0.2213,-0.2212,-0.2219,-0.2216,-0.2185,-0.2177,-0.2151,-0.2152,-0.2147,-0.2158,-0.2107,-0.2114,-0.2117,-0.2119,-0.2199,-0.2208,-0.2216,0,0,0,0,0,-0.214,-0.2172,-0.2169,-0.2177,-0.2212,-0.2244,-0.2246,-0.2239,-0.222,-0.2235,-0.222,-0.2178,-0.2164,-0.2152,-0.2146,-0.2156,-0.2113,-0.2116,-0.2119,-0.2195,-0.2206,-0.2215,0,0,0,0,0,0,-0.2133,-0.2173,-0.217,-0.221,-0.2228,-0.224,-0.2249,-0.2245,-0.2246,-0.2236,-0.2202,-0.2194,-0.2201,-0.2173,-0.2161,-0.2167,-0.2129,-0.2131,-0.2189,-0.2199,-0.2207,-0.2214,-0.2105,0,0,0,0,0,-0.214,-0.2171,-0.22,-0.2226,-0.2239,-0.2243,-0.2252,-0.2252,-0.2256,-0.2254,-0.2236,-0.2216,-0.2211,-0.2201,-0.219,-0.2196,-0.2184,-0.2197,-0.2205,-0.2212,-0.2215,-0.2217,-0.2226,-0.2131,-0.2131,-0.2131,0,0,-0.2134,-0.2165,-0.2176,-0.2226,-0.2233,-0.2266,-0.2246,-0.2267,-0.229,-0.2245,-0.2264,-0.2247,-0.2221,-0.2233,-0.2231,-0.2208,-0.224,-0.2216,-0.2223,-0.2221,-0.2221,-0.2231,-0.2239,-0.2133,-0.2133,-0.2132,0,0,-0.2155,-0.2176,-0.2213,-0.2238,-0.2268,-0.2278,-0.2288,-0.2309,-0.2315,-0.2339,-0.2312,-0.2318,-0.2298,-0.2296,-0.2288,-0.2339,-0.2289,-0.2317,-0.2359,-0.2362,-0.237,-0.2376,-0.24,-0.2408,-0.2316,-0.2316,-0.2316,0,-0.2143,-0.2201,-0.2224,-0.227,-0.2287,-0.2288,-0.2324,-0.2342,-0.236,-0.2368,-0.2353,-0.2352,-0.2337,-0.2354,-0.2371,-0.236,-0.2348,-0.2322,-0.2373,-0.2379,-0.2384,-0.2407,-0.2414,-0.2321,-0.232,-0.232,-0.2319,0,-0.2195,-0.2238,-0.226,-0.2318,-0.2344,-0.2372,-0.2402,-0.2425,-0.2425,-0.2434,-0.2455,-0.2448,-0.2442,-0.2441,-0.242,-0.2445,-0.2423,-0.2389,-0.2347,-0.2399,-0.242,-0.2426,-0.2327,-0.2325,-0.2324,-0.2323,0,0,-0.217,-0.2275,-0.228,-0.2317,-0.237,-0.2397,-0.2443,-0.2483,-0.2506,-0.2521,-0.2545,-0.2558,-0.2538,-0.2529,-0.2504,-0.2509,-0.2554,-0.2459,-0.2457,-0.2484,-0.2566,-0.2407,-0.2399,-0.2512,-0.2513,-0.2514,-0.2575,0,-0.2194,-0.2289,-0.2332,-0.2399,-0.2443,-0.2468,-0.2512,-0.2546,-0.2561,-0.2586,-0.2586,-0.2596,-0.2574,-0.2565,-0.2573,-0.2546,-0.2569,-0.2541,-0.251,-0.2511,-0.2363,-0.24,-0.2202,-0.2225,-0.2581,-0.2582,-0.2583,0,-0.2225,-0.2287,-0.2363,-0.2452,-0.2471,-0.2508,-0.2562,-0.2601,-0.2638,-0.2646,-0.2656,-0.2643,-0.2662,-0.2627,-0.264,-0.2612,-0.2602,-0.259,-0.2591,-0.2412,-0.2361,-0.2225,-0.2223,-0.2156,-0.2593,-0.2592,-0.2591,0,-0.2196,-0.2306,-0.2364,-0.2393,-0.2489,-0.2522,-0.2563,-0.2612,-0.2638,-0.2672,-0.2678,-0.2698,-0.2694,-0.269,-0.2677,-0.2648,-0.2684,-0.2643,-0.251,-0.2501,-0.231,-0.228,-0.2232,-0.2668,-0.2668,-0.2668,-0.2668,0,-0.2203,-0.2249,-0.2359,-0.2386,-0.245,-0.2518,-0.2564,-0.2611,-0.2653,-0.2676,-0.2696,-0.2706,-0.2701,-0.2714,-0.2702,-0.2624,-0.2713,-0.2522,-0.2497,-0.2335,-0.2307,-0.2218,-0.2256,-0.267,-0.267,-0.2669,-0.2669,0,-0.2162,-0.223,-0.2309,-0.2413,-0.2438,-0.2484,-0.2557,-0.2579,-0.2637,-0.2663,-0.2671,-0.2709,-0.2699,-0.271,-0.271,-0.2631,-0.2521,-0.2562,-0.2379,-0.2327,-0.2045,-0.2096,-0.2073,-0.2026,-0.2382,-0.2378,-0.2375,0,-0.2151,-0.2185,-0.2306,-0.2331,-0.2375,-0.244,-0.2463,-0.2547,-0.2571,-0.2659,-0.2661,-0.2677,-0.2653,-0.26,-0.2456,-0.2386,-0.2428,-0.2182,-0.2071,-0.1998,-0.204,-0.21,-0.2069,-0.1888,-0.1881,-0.1876,-0.1871,0,-0.2117,-0.2163,-0.2223,-0.2275,-0.2311,-0.2348,-0.2402,-0.2423,-0.2513,-0.2548,-0.2577,-0.257,-0.2469,-0.2247,-0.2137,-0.2084,-0.2059,-0.2056,-0.2029,-0.1679,-0.1698,-0.1648,-0.192,-0.1821,-0.1826,-0.183,-0.1832,-0.1835,-0.2073,-0.2109,-0.2171,-0.2204,-0.2236,-0.2229,-0.221,-0.2267,-0.229,-0.2284,-0.2384,-0.2263,-0.2056,-0.1802,-0.1762,-0.15,-0.1673,-0.1398,-0.1485,-0.1568,-0.1444,-0.16,-0.1425,-0.1428,-0.143,-0.1432,-0.1434,0,-0.2016,-0.2044,-0.2079,-0.2113,-0.2083,-0.2126,-0.2131,-0.207,-0.2044,-0.2022,-0.199,-0.1692,-0.1457,-0.1321,-0.1036,-0.094,-0.0968,-0.0959,-0.1012,-0.1022,-0.1167,-0.1056,-0.073,-0.073,-0.073,-0.073,-0.073,-0.073,-0.1982,-0.1989,-0.2006,-0.1933,-0.1931,-0.1826,-0.1785,-0.1717,-0.1646,-0.1445,-0.1259,-0.1155,-0.1031,-0.0905,-0.0717,-0.0678,-0.0724,-0.0681,-0.0819,-0.0908,-0.0956,-0.1003,-0.0902,-0.055,-0.055,-0.0561,-0.0561,-0.0561]},{"header":{"parameterUnit":"m.s-1","parameterCategory":2,"la1":30.2991,"la2":30.254,"lo1":-89.0895,"lo2":-89.0444,"dy":0.0017,"dx":0.0017,"nx":28,"ny":28,"refTime":"2023-11-17T03:00:00:Z","depth":"0","parameterNumber":3,"parameterNumberName":"V-component_of_CURRENTS"},"data":[0,0,0,0,0,0,0,0,0,0,0,0,0,0,0,0,0,0,0,0,0,0,0,0,0,0,0,0,0,0,0,0,0,0,0,0,0,0,0,0,0,0,0,0,0,0,0,0,0,0,0,0,0,0,0,0,0,0,-0.091,-0.0908,0,-0.0767,-0.0766,-0.0765,-0.0691,-0.0691,-0.0691,-0.069,-0.0557,-0.0554,-0.055,0,0,0,0,0,0,0,0,0,0,0,0,0,-0.1032,-0.1031,-0.091,-0.0908,-0.0906,-0.0768,-0.0766,-0.0764,-0.0691,-0.0691,-0.069,-0.069,-0.0558,-0.0554,-0.055,0,0,0,0,0,0,0,0,0,0,0,0,0,-0.0946,-0.1031,-0.091,-0.0851,-0.0844,-0.0768,-0.0766,-0.0764,-0.0691,-0.0691,-0.069,-0.069,-0.0559,-0.0554,-0.0549,-0.0528,0,0,-0.0534,-0.0532,0,0,0,0,0,0,0,0,-0.0951,-0.0942,-0.0862,-0.0855,-0.0847,-0.0745,-0.076,-0.0685,-0.0691,-0.0752,-0.069,-0.069,-0.0619,-0.0609,-0.0587,-0.0522,-0.0516,-0.0534,-0.0531,-0.0529,-0.0528,0,0,0,0,0,0,0,-0.0957,-0.0947,-0.0856,-0.086,-0.0851,-0.0802,-0.079,-0.0745,-0.0692,-0.0747,-0.074,-0.0721,-0.0616,-0.0592,-0.0583,-0.0514,-0.0534,-0.053,-0.0527,-0.0525,-0.0414,-0.0414,0,0,0,0,0,0,-0.0975,-0.0953,-0.086,-0.0851,-0.0896,-0.08,-0.0787,-0.078,-0.0692,-0.0677,-0.0721,-0.0718,-0.06,-0.0589,-0.0578,-0.0567,-0.0529,-0.0524,-0.0522,-0.0414,-0.0414,-0.0414,0,0,0,0,0,0,-0.0978,-0.0969,-0.0866,-0.0896,-0.088,-0.0799,-0.0791,-0.0777,-0.0752,-0.0672,-0.0658,-0.071,-0.0599,-0.0585,-0.0546,-0.0561,-0.0522,-0.0518,-0.0414,-0.0414,-0.0414,-0.0533,0,0,0,0,0,0,-0.0983,-0.0971,-0.0981,-0.0898,-0.0878,-0.0832,-0.0791,-0.0775,-0.074,-0.0734,-0.0658,-0.0645,-0.0598,-0.0554,-0.0541,-0.0553,-0.0514,-0.0414,-0.0414,-0.0414,-0.0529,-0.0537,-0.0543,0,0,0,0,0,-0.0988,-0.1001,-0.0983,-0.0972,-0.0893,-0.0833,-0.0819,-0.0761,-0.074,-0.0736,-0.0686,-0.0647,-0.0545,-0.055,-0.0535,-0.0546,-0.0414,-0.0414,-0.0414,-0.0525,-0.0535,-0.0543,0,0,0,0,0,0,-0.105,-0.0992,-0.0971,-0.0964,-0.0909,-0.082,-0.0809,-0.0767,-0.0723,-0.0721,-0.065,-0.0634,-0.06,-0.0555,-0.0563,-0.0511,-0.0472,-0.0469,-0.0561,-0.0569,-0.0577,-0.0617,-0.051,0,0,0,0,0,-0.1072,-0.1072,-0.0998,-0.0992,-0.097,-0.0893,-0.0864,-0.0822,-0.0765,-0.0745,-0.0693,-0.0636,-0.0587,-0.0567,-0.0513,-0.0493,-0.0478,-0.0487,-0.0494,-0.0501,-0.0522,-0.0532,-0.0544,-0.0414,-0.0414,-0.0414,0,0,-0.1092,-0.106,-0.1059,-0.1006,-0.096,-0.0938,-0.0876,-0.0836,-0.0825,-0.0738,-0.0719,-0.0658,-0.0584,-0.0558,-0.0539,-0.0526,-0.0525,-0.0501,-0.0508,-0.0525,-0.0534,-0.0547,-0.0558,-0.0414,-0.0414,-0.0414,0,0,-0.1129,-0.1107,-0.1119,-0.1084,-0.1024,-0.0975,-0.0969,-0.0891,-0.0868,-0.0833,-0.0769,-0.073,-0.065,-0.0614,-0.0581,-0.0598,-0.0559,-0.0567,-0.0648,-0.0658,-0.067,-0.068,-0.0669,-0.0677,-0.0579,-0.0579,-0.058,0,-0.1159,-0.116,-0.111,-0.1107,-0.1088,-0.1,-0.1001,-0.0963,-0.0885,-0.0882,-0.0843,-0.0748,-0.0683,-0.0665,-0.0663,-0.0619,-0.0611,-0.0625,-0.0673,-0.0682,-0.0691,-0.0677,-0.0685,-0.0585,-0.0584,-0.0584,-0.0583,0,-0.12,-0.12,-0.12,-0.1177,-0.1152,-0.1135,-0.1075,-0.106,-0.1018,-0.0976,-0.0948,-0.0864,-0.0814,-0.0779,-0.0722,-0.0743,-0.0711,-0.068,-0.0664,-0.0713,-0.0693,-0.0699,-0.0593,-0.0591,-0.0589,-0.0588,0,0,-0.1264,-0.124,-0.1241,-0.1248,-0.1191,-0.1175,-0.1172,-0.1146,-0.1157,-0.109,-0.1107,-0.1015,-0.097,-0.093,-0.0857,-0.086,-0.0895,-0.0804,-0.0802,-0.0817,-0.0912,-0.0743,-0.0733,-0.0881,-0.0883,-0.0885,-0.0871,0,-0.131,-0.134,-0.1308,-0.1328,-0.1333,-0.1279,-0.1288,-0.1259,-0.1219,-0.1214,-0.1147,-0.1112,-0.1027,-0.1,-0.0995,-0.0907,-0.0919,-0.0901,-0.0841,-0.0839,-0.0703,-0.0737,-0.065,-0.0618,-0.0877,-0.0878,-0.0879,0,-0.1364,-0.1374,-0.1415,-0.1419,-0.1419,-0.1422,-0.1431,-0.1423,-0.1394,-0.1365,-0.1332,-0.1261,-0.1226,-0.1154,-0.1086,-0.108,-0.1017,-0.096,-0.0958,-0.0769,-0.0682,-0.0609,-0.0619,-0.0473,-0.0888,-0.0887,-0.0886,0,-0.1442,-0.1451,-0.1495,-0.1493,-0.1481,-0.1505,-0.15,-0.148,-0.1484,-0.1458,-0.1453,-0.1399,-0.1359,-0.1297,-0.1132,-0.113,-0.1057,-0.1038,-0.084,-0.0827,-0.0722,-0.0695,-0.0605,-0.1035,-0.1035,-0.1035,-0.1035,0,-0.1505,-0.1533,-0.1539,-0.1557,-0.1611,-0.1585,-0.1629,-0.1614,-0.1606,-0.1613,-0.1536,-0.1514,-0.1396,-0.1311,-0.1194,-0.1005,-0.1104,-0.0863,-0.0817,-0.0753,-0.073,-0.057,-0.0524,-0.1034,-0.1035,-0.1035,-0.1035,0,-0.1568,-0.1574,-0.1619,-0.1638,-0.1643,-0.1684,-0.1691,-0.1708,-0.1703,-0.1711,-0.1705,-0.1615,-0.1475,-0.1327,-0.1194,-0.1054,-0.0795,-0.0827,-0.0733,-0.0675,-0.0332,-0.0296,-0.0177,-0.0088,-0.0631,-0.0627,-0.0624,0,-0.1607,-0.1637,-0.1677,-0.1701,-0.1706,-0.1747,-0.1755,-0.1749,-0.1749,-0.175,-0.1745,-0.1636,-0.1498,-0.1212,-0.0945,-0.0705,-0.0638,-0.0501,-0.0472,-0.0299,-0.0229,-0.0226,-0.0161,-0.0392,-0.0387,-0.0383,-0.0379,0,-0.1671,-0.1688,-0.171,-0.1751,-0.1773,-0.179,-0.1803,-0.1823,-0.1812,-0.1817,-0.1755,-0.1659,-0.1337,-0.0975,-0.0634,-0.0499,-0.0357,-0.0403,-0.0278,-0.007,-0.0015,0.009,-0.0405,-0.0342,-0.0346,-0.0348,-0.035,-0.0352,-0.1706,-0.1732,-0.1759,-0.178,-0.181,-0.1814,-0.1821,-0.1811,-0.1813,-0.1744,-0.1689,-0.1425,-0.0989,-0.0458,-0.0303,0.0086,-0.0027,0.017,0.0184,0.016,0.03,-0.0075,0.0089,0.0088,0.0087,0.0086,0.0085,0,-0.175,-0.1752,-0.178,-0.1805,-0.1828,-0.1831,-0.1828,-0.1806,-0.1782,-0.1573,-0.1451,-0.0844,-0.041,-0.0017,0.0479,0.0654,0.0636,0.0699,0.0677,0.0703,0.0326,0.0397,0.0703,0.0703,0.0703,0.0703,0.0702,0.0702,-0.1761,-0.1794,-0.1778,-0.1801,-0.1818,-0.1814,-0.1801,-0.1747,-0.1583,-0.1179,-0.0743,-0.0382,0.0123,0.0664,0.1055,0.1077,0.1172,0.1163,0.1197,0.091,0.086,0.0811,0.089,0.1294,0.1295,0.1568,0.157,0.1573]}],[{"header":{"parameterUnit":"m.s-1","parameterCategory":2,"la1":30.2991,"la2":30.254,"lo1":-89.0895,"lo2":-89.0444,"dy":0.0017,"dx":0.0017,"nx":28,"ny":28,"refTime":"2023-11-17T03:00:00:Z","depth":"2","parameterNumber":2,"parameterNumberName":"U-component_of_CURRENTS"},"data":[0,0,0,0,0,0,0,0,0,0,0,0,0,0,0,0,0,0,0,0,0,0,0,0,0,0,0,0,0,0,0,0,0,0,0,0,0,0,0,0,0,0,0,0,0,0,0,0,0,0,0,0,0,0,0,0,0,0,-0.1503,-0.1504,0,-0.1614,-0.1616,-0.1618,-0.1686,-0.1686,-0.1685,-0.1685,-0.1747,-0.1749,-0.1751,0,0,0,0,0,0,0,0,0,0,0,0,0,-0.1428,-0.1429,-0.1503,-0.1504,-0.1505,-0.1614,-0.1616,-0.1618,-0.1686,-0.1686,-0.1685,-0.1685,-0.1747,-0.1749,-0.1751,0,0,0,0,0,0,0,0,0,0,0,0,0,-0.1498,-0.1429,-0.1503,-0.1546,-0.1551,-0.1613,-0.1616,-0.1619,-0.1686,-0.1686,-0.1685,-0.1685,-0.1746,-0.1749,-0.1751,-0.1778,0,0,-0.176,-0.1761,0,0,0,0,0,0,0,0,-0.1494,-0.1502,-0.1539,-0.1543,-0.1549,-0.163,-0.1612,-0.1667,-0.1686,-0.1642,-0.1685,-0.1685,-0.1699,-0.1706,-0.1738,-0.1781,-0.1783,-0.1761,-0.1762,-0.1763,-0.1764,0,0,0,0,0,0,0,-0.1489,-0.1498,-0.1554,-0.154,-0.1546,-0.1587,-0.1596,-0.1624,-0.1676,-0.1646,-0.1649,-0.1651,-0.1702,-0.1735,-0.174,-0.1784,-0.176,-0.1763,-0.1765,-0.1766,-0.189,-0.1891,0,0,0,0,0,0,-0.1458,-0.1493,-0.155,-0.1557,-0.1512,-0.1588,-0.1599,-0.161,-0.1677,-0.1685,-0.1651,-0.1654,-0.1731,-0.1737,-0.1742,-0.1746,-0.1763,-0.1766,-0.1768,-0.1888,-0.189,-0.1892,0,0,0,0,0,0,-0.1456,-0.1463,-0.1546,-0.1521,-0.1534,-0.1588,-0.1601,-0.1612,-0.1653,-0.168,-0.1689,-0.168,-0.1731,-0.1738,-0.1795,-0.1749,-0.1767,-0.177,-0.1886,-0.1889,-0.1891,-0.1772,0,0,0,0,0,0,-0.1454,-0.1462,-0.1473,-0.1519,-0.1534,-0.1582,-0.1601,-0.1614,-0.1651,-0.1656,-0.1708,-0.1713,-0.1731,-0.1791,-0.1798,-0.1754,-0.1772,-0.1884,-0.1887,-0.189,-0.1774,-0.177,-0.1767,0,0,0,0,0,-0.1451,-0.1461,-0.1473,-0.148,-0.1543,-0.1581,-0.1594,-0.1636,-0.1652,-0.1673,-0.1725,-0.1712,-0.1814,-0.1796,-0.1803,-0.1758,-0.1883,-0.1887,-0.189,-0.1776,-0.1771,-0.1767,0,0,0,0,0,0,-0.1454,-0.1469,-0.1484,-0.1504,-0.1538,-0.159,-0.1609,-0.1641,-0.1702,-0.1712,-0.1742,-0.1752,-0.1781,-0.1813,-0.1792,-0.1813,-0.1842,-0.1847,-0.1752,-0.1748,-0.1745,-0.1755,-0.1775,0,0,0,0,0,-0.1452,-0.1448,-0.1487,-0.1502,-0.1516,-0.1567,-0.1592,-0.1624,-0.1673,-0.17,-0.1732,-0.1775,-0.1803,-0.1812,-0.1853,-0.1867,-0.1916,-0.1848,-0.1844,-0.184,-0.1861,-0.1895,-0.1895,-0.1903,-0.1903,-0.1903,0,0,-0.145,-0.1462,-0.146,-0.1499,-0.1529,-0.1548,-0.1583,-0.1621,-0.1644,-0.1695,-0.1739,-0.1769,-0.1814,-0.1829,-0.1841,-0.1843,-0.1869,-0.1845,-0.184,-0.1864,-0.1899,-0.1897,-0.1896,-0.1906,-0.1905,-0.1905,0,0,-0.1438,-0.1462,-0.1454,-0.148,-0.1517,-0.1547,-0.1555,-0.1612,-0.1646,-0.1692,-0.1729,-0.1749,-0.1798,-0.181,-0.1822,-0.1835,-0.1858,-0.1836,-0.1801,-0.1831,-0.183,-0.1829,-0.1892,-0.1898,-0.1818,-0.1818,-0.1818,0,-0.1453,-0.1438,-0.1462,-0.1471,-0.1493,-0.1539,-0.1557,-0.1593,-0.1664,-0.1691,-0.1695,-0.1772,-0.1784,-0.1801,-0.1794,-0.1815,-0.1861,-0.1793,-0.182,-0.1821,-0.1822,-0.1887,-0.1895,-0.1813,-0.1813,-0.1814,-0.1814,0,-0.1427,-0.1429,-0.1429,-0.1443,-0.1479,-0.1498,-0.1546,-0.1581,-0.1613,-0.1648,-0.1691,-0.1723,-0.1767,-0.1748,-0.1765,-0.1772,-0.1813,-0.1812,-0.1812,-0.1812,-0.1884,-0.1893,-0.1805,-0.1807,-0.1808,-0.181,0,0,-0.1447,-0.1414,-0.1423,-0.1421,-0.1469,-0.1498,-0.153,-0.1578,-0.1606,-0.1642,-0.1682,-0.1687,-0.171,-0.1733,-0.1743,-0.1747,-0.1765,-0.1772,-0.1776,-0.1804,-0.1865,-0.1687,-0.1682,-0.1758,-0.1759,-0.176,-0.191,0,-0.1431,-0.1409,-0.1419,-0.1427,-0.1423,-0.148,-0.1517,-0.1573,-0.1606,-0.1655,-0.1678,-0.172,-0.1702,-0.1715,-0.1714,-0.1766,-0.1788,-0.1727,-0.1892,-0.1898,-0.1711,-0.1685,-0.1522,-0.1622,-0.1921,-0.1922,-0.1924,0,-0.1409,-0.1398,-0.1391,-0.1409,-0.1425,-0.1444,-0.1517,-0.1563,-0.1632,-0.1671,-0.17,-0.1732,-0.1756,-0.1742,-0.1814,-0.1778,-0.1824,-0.1853,-0.1859,-0.1745,-0.1737,-0.1676,-0.163,-0.1941,-0.194,-0.1938,-0.1937,0,-0.139,-0.1383,-0.1373,-0.1382,-0.1421,-0.1445,-0.1481,-0.1556,-0.1621,-0.1684,-0.1725,-0.1763,-0.1801,-0.1843,-0.1888,-0.1859,-0.1986,-0.1955,-0.1856,-0.1848,-0.1768,-0.1747,-0.2027,-0.2027,-0.2027,-0.2026,-0.2026,0,-0.1357,-0.1368,-0.1352,-0.1355,-0.1391,-0.143,-0.1492,-0.1542,-0.1628,-0.1699,-0.1733,-0.1785,-0.1826,-0.1891,-0.1925,-0.1914,-0.2021,-0.1855,-0.1857,-0.1722,-0.1696,-0.2025,-0.2023,-0.2032,-0.2031,-0.203,-0.2029,0,-0.1352,-0.1336,-0.1327,-0.1344,-0.1376,-0.1402,-0.1507,-0.1553,-0.163,-0.172,-0.1748,-0.1829,-0.187,-0.1922,-0.2007,-0.1943,-0.1971,-0.1963,-0.1806,-0.178,-0.1813,-0.1804,-0.1831,-0.1826,-0.1821,-0.1817,-0.1814,0,-0.1336,-0.1314,-0.1333,-0.1337,-0.1346,-0.1401,-0.1468,-0.1565,-0.1601,-0.1739,-0.1771,-0.1842,-0.185,-0.1894,-0.1811,-0.1812,-0.1933,-0.1656,-0.1517,-0.1784,-0.1787,-0.1785,-0.1782,-0.1411,-0.1405,-0.14,-0.1396,0,-0.1306,-0.1311,-0.1334,-0.1325,-0.1359,-0.142,-0.1476,-0.1516,-0.1632,-0.1685,-0.1755,-0.1774,-0.1754,-0.1608,-0.1554,-0.154,-0.1609,-0.1539,-0.1905,-0.1431,-0.1384,-0.1387,-0.14,-0.135,-0.1355,-0.1358,-0.1361,-0.1363,-0.1322,-0.1304,-0.13,-0.1316,-0.1357,-0.1384,-0.1392,-0.1455,-0.1524,-0.1543,-0.1624,-0.1555,-0.1523,-0.1268,-0.1239,-0.1178,-0.1274,-0.121,-0.123,-0.1254,-0.1122,-0.1062,-0.095,-0.0952,-0.0954,-0.0956,-0.0957,0,-0.1306,-0.1278,-0.1269,-0.1267,-0.1278,-0.1319,-0.1371,-0.1343,-0.1355,-0.1374,-0.1361,-0.115,-0.1001,-0.1006,-0.08,-0.0735,-0.0781,-0.0728,-0.0797,-0.084,-0.0879,-0.0732,-0.0456,-0.0455,-0.0454,-0.0453,0,0,-0.1278,-0.1256,-0.1235,-0.1189,-0.1187,-0.1166,-0.1164,-0.1144,-0.1106,-0.1044,-0.0957,-0.0931,-0.0921,-0.0671,-0.0623,-0.051,-0.0686,-0.0483,-0.0878,-0.1002,-0.104,-0.1136,-0.0952,0,0,0,0,0]},{"header":{"parameterUnit":"m.s-1","parameterCategory":2,"la1":30.2991,"la2":30.254,"lo1":-89.0895,"lo2":-89.0444,"dy":0.0017,"dx":0.0017,"nx":28,"ny":28,"refTime":"2023-11-17T03:00:00:Z","depth":"2","parameterNumber":3,"parameterNumberName":"V-component_of_CURRENTS"},"data":[0,0,0,0,0,0,0,0,0,0,0,0,0,0,0,0,0,0,0,0,0,0,0,0,0,0,0,0,0,0,0,0,0,0,0,0,0,0,0,0,0,0,0,0,0,0,0,0,0,0,0,0,0,0,0,0,0,0,0.0173,0.0173,0,0.0227,0.0229,0.023,0.0324,0.0325,0.0326,0.0327,0.0437,0.0439,0.0441,0,0,0,0,0,0,0,0,0,0,0,0,0,0.0219,0.0218,0.0173,0.0173,0.0173,0.0227,0.0229,0.023,0.0324,0.0325,0.0326,0.0328,0.0437,0.0439,0.0441,0,0,0,0,0,0,0,0,0,0,0,0,0,0.0236,0.0218,0.0173,0.0221,0.0225,0.0227,0.0229,0.023,0.0323,0.0325,0.0327,0.0328,0.0436,0.0439,0.0442,0.0426,0,0,0.045,0.0452,0,0,0,0,0,0,0,0,0.0235,0.0235,0.0214,0.0217,0.0222,0.0264,0.0285,0.0296,0.0323,0.0294,0.0327,0.0329,0.0379,0.0386,0.0403,0.0432,0.0436,0.0451,0.0452,0.0454,0.0454,0,0,0,0,0,0,0,0.0233,0.0233,0.0202,0.0213,0.0219,0.0263,0.0267,0.0288,0.0333,0.0296,0.0302,0.0295,0.0383,0.0399,0.0406,0.0438,0.0451,0.0453,0.0455,0.0456,0.0545,0.0546,0,0,0,0,0,0,0.0206,0.0231,0.02,0.0203,0.0224,0.026,0.0265,0.0255,0.0332,0.0342,0.0294,0.0299,0.0394,0.0402,0.041,0.0413,0.0454,0.0456,0.0458,0.0545,0.0545,0.0546,0,0,0,0,0,0,0.0207,0.0202,0.0198,0.0213,0.0215,0.0256,0.0245,0.0255,0.0279,0.0328,0.0342,0.0308,0.0395,0.0406,0.0444,0.0417,0.0458,0.046,0.0544,0.0545,0.0546,0.0407,0,0,0,0,0,0,0.0208,0.0202,0.0196,0.0211,0.0213,0.0197,0.0243,0.0255,0.0269,0.0277,0.0343,0.0355,0.0398,0.044,0.0447,0.0422,0.0462,0.0543,0.0544,0.0545,0.0411,0.0403,0.0397,0,0,0,0,0,0.0209,0.0187,0.0195,0.0191,0.0198,0.0195,0.0201,0.0242,0.0268,0.0272,0.0327,0.0354,0.0453,0.0442,0.0451,0.0425,0.0542,0.0544,0.0545,0.0414,0.0405,0.0397,0,0,0,0,0,0,0.0191,0.0194,0.0203,0.018,0.0185,0.0208,0.021,0.0234,0.028,0.0293,0.0352,0.0367,0.0399,0.0438,0.0424,0.0463,0.0506,0.0509,0.0403,0.0395,0.0388,0.0381,0.0465,0,0,0,0,0,0.0181,0.0178,0.0177,0.0159,0.0155,0.0182,0.0188,0.0211,0.0243,0.0266,0.031,0.0366,0.0408,0.0422,0.0474,0.0474,0.0523,0.0474,0.0466,0.0459,0.0465,0.0516,0.0512,0.0551,0.0551,0.0551,0,0,0.0183,0.0168,0.0178,0.0158,0.0166,0.0151,0.0192,0.0191,0.0193,0.0267,0.0293,0.0345,0.0411,0.0429,0.0445,0.0454,0.0472,0.0461,0.0454,0.0464,0.0516,0.0512,0.0509,0.0552,0.0552,0.0551,0,0,0.0154,0.0153,0.0137,0.013,0.0119,0.0131,0.0125,0.0145,0.0171,0.0188,0.0254,0.0287,0.0344,0.038,0.0407,0.0391,0.0444,0.0411,0.0346,0.0393,0.0389,0.0387,0.0421,0.0423,0.0391,0.0391,0.0391,0,0.0144,0.0117,0.0132,0.0095,0.0086,0.0115,0.0089,0.0109,0.0146,0.0163,0.0186,0.0282,0.032,0.0347,0.034,0.0368,0.041,0.0358,0.0379,0.0378,0.0377,0.0414,0.0418,0.0385,0.0385,0.0386,0.0387,0,0.0105,0.0078,0.0059,0.0031,0.0025,0.0007,0.0019,0.0033,0.006,0.0087,0.0131,0.0189,0.0246,0.0253,0.0283,0.0299,0.0333,0.0369,0.0385,0.0364,0.0405,0.0411,0.0375,0.0378,0.038,0.0381,0,0,0.0094,0.0043,0.0039,0.001,-0.001,-0.0021,-0.0026,-0.002,-0.0011,0.0028,0.0047,0.0095,0.0136,0.0172,0.0215,0.0236,0.0243,0.0286,0.0291,0.0293,0.0343,0.0338,0.0345,0.028,0.0281,0.0281,0.0363,0,0.0055,-0.0021,-0.0026,-0.0078,-0.0116,-0.0097,-0.0106,-0.009,-0.0057,-0.0028,0.0028,0.007,0.0102,0.0123,0.0149,0.0241,0.0258,0.0218,0.039,0.0395,0.037,0.0351,0.0339,0.0409,0.037,0.0371,0.0372,0,0.0022,-0.0031,-0.0097,-0.0145,-0.0157,-0.0174,-0.0172,-0.0177,-0.0132,-0.0103,-0.0055,0.001,0.0054,0.0087,0.0204,0.018,0.0248,0.0307,0.0312,0.0364,0.0401,0.0434,0.0423,0.0383,0.0382,0.0381,0.0381,0,0.0,-0.0071,-0.0127,-0.0146,-0.0198,-0.0208,-0.0219,-0.0195,-0.0203,-0.0143,-0.0124,-0.0041,0.0004,0.0102,0.02,0.0217,0.0326,0.0374,0.0431,0.0432,0.0486,0.0489,0.0451,0.0451,0.0451,0.045,0.045,0,-0.0044,-0.0086,-0.0141,-0.018,-0.0238,-0.0245,-0.0285,-0.0272,-0.0254,-0.0261,-0.0166,-0.0148,0.0012,0.0091,0.0189,0.0312,0.0319,0.0421,0.0453,0.0436,0.0434,0.0474,0.0476,0.0453,0.0453,0.0452,0.0452,0,-0.0076,-0.0103,-0.0185,-0.0245,-0.0265,-0.0305,-0.0357,-0.0388,-0.034,-0.034,-0.0323,-0.0218,-0.0101,0.0037,0.0199,0.0296,0.0412,0.0446,0.0402,0.0427,0.0499,0.0493,0.0563,0.0564,0.0564,0.0564,0.0565,0,-0.0085,-0.0141,-0.025,-0.0295,-0.0329,-0.039,-0.045,-0.0446,-0.0464,-0.0396,-0.0399,-0.0278,-0.0195,0.0028,0.0211,0.0396,0.0397,0.049,0.0526,0.0486,0.0511,0.0504,0.0498,0.0543,0.0543,0.0543,0.0543,0,-0.0125,-0.018,-0.0281,-0.0394,-0.0463,-0.0542,-0.0594,-0.0615,-0.0594,-0.0551,-0.0495,-0.0417,-0.0187,0.0027,0.0266,0.0365,0.0467,0.0499,0.0481,0.0503,0.0471,0.0493,0.0487,0.0544,0.0544,0.0544,0.0544,0.0544,-0.0172,-0.025,-0.0388,-0.0512,-0.0591,-0.0662,-0.0711,-0.0742,-0.0755,-0.0641,-0.0564,-0.0366,-0.0172,0.0214,0.0323,0.0465,0.0495,0.0569,0.0567,0.0566,0.0536,0.0505,0.0579,0.0579,0.0579,0.0579,0.0579,0,-0.0237,-0.0344,-0.0469,-0.0609,-0.0719,-0.0732,-0.0797,-0.0806,-0.0807,-0.064,-0.0525,-0.0248,0.001,0.0207,0.0445,0.0564,0.0552,0.057,0.0551,0.0551,0.055,0.0518,0.0556,0.0556,0.0556,0.0556,0,0,-0.0271,-0.0427,-0.0522,-0.0705,-0.0784,-0.088,-0.0906,-0.0892,-0.0772,-0.0614,-0.04,-0.0135,0.0103,0.0269,0.0383,0.049,0.0484,0.0483,0.0495,0.0457,0.0455,0.0547,0.0497,0,0,0,0,0]}],[{"header":{"parameterUnit":"m.s-1","parameterCategory":2,"la1":30.2991,"la2":30.254,"lo1":-89.0895,"lo2":-89.0444,"dy":0.0017,"dx":0.0017,"nx":28,"ny":28,"refTime":"2023-11-17T03:00:00:Z","depth":"4","parameterNumber":2,"parameterNumberName":"U-component_of_CURRENTS"},"data":[0,0,0,0,0,0,0,0,0,0,0,0,0,0,0,0,0,0,0,0,0,0,0,0,0,0,0,0,0,0,0,0,0,0,0,0,0,0,0,0,0,0,0,0,0,0,0,0,0,0,0,0,0,0,0,0,0,0,-0.092,-0.0921,0,-0.0987,-0.0988,-0.0988,-0.1011,-0.1011,-0.1011,-0.101,-0.1083,-0.1085,-0.1088,0,0,0,0,0,0,0,0,0,0,0,0,0,-0.0849,-0.085,-0.092,-0.0921,-0.0922,-0.0987,-0.0988,-0.0989,-0.1011,-0.1011,-0.101,-0.101,-0.1083,-0.1085,-0.1088,0,0,0,0,0,0,0,0,0,0,0,0,0,-0.0894,-0.085,-0.092,-0.0941,-0.0943,-0.0987,-0.0988,-0.0989,-0.1011,-0.1011,-0.101,-0.101,-0.1082,-0.1085,-0.1088,-0.1116,0,0,-0.1098,-0.1099,0,0,0,0,0,0,0,0,-0.0891,-0.0896,-0.0937,-0.094,-0.0943,-0.0991,-0.099,-0.1032,-0.1011,-0.0985,-0.101,-0.101,-0.1053,-0.1059,-0.1072,-0.1119,-0.1122,-0.1098,-0.11,-0.1102,-0.1103,0,0,0,0,0,0,0,-0.0888,-0.0894,-0.0946,-0.0938,-0.0941,-0.096,-0.0966,-0.0998,-0.102,-0.0987,-0.0989,-0.0997,-0.1055,-0.1069,-0.1074,-0.1123,-0.1098,-0.1101,-0.1103,-0.1104,-0.1216,-0.1217,0,0,0,0,0,0,-0.0879,-0.0891,-0.0944,-0.0948,-0.0916,-0.0961,-0.0968,-0.0975,-0.102,-0.1026,-0.0998,-0.0998,-0.1063,-0.107,-0.1076,-0.114,-0.1102,-0.1105,-0.1107,-0.1215,-0.1216,-0.1217,0,0,0,0,0,0,-0.0877,-0.0883,-0.0941,-0.0921,-0.093,-0.0963,-0.0971,-0.0977,-0.1,-0.1028,-0.1034,-0.1016,-0.1063,-0.1072,-0.111,-0.1142,-0.1106,-0.1109,-0.1214,-0.1216,-0.1217,-0.1249,0,0,0,0,0,0,-0.0875,-0.0882,-0.0888,-0.0921,-0.0931,-0.0972,-0.0972,-0.0978,-0.1005,-0.1007,-0.1046,-0.1052,-0.1063,-0.1105,-0.1113,-0.1146,-0.1112,-0.1213,-0.1215,-0.1216,-0.1247,-0.1252,-0.1256,0,0,0,0,0,-0.0872,-0.0881,-0.0888,-0.0894,-0.0936,-0.0972,-0.098,-0.1001,-0.1007,-0.102,-0.1044,-0.1051,-0.1123,-0.1109,-0.1118,-0.1152,-0.1212,-0.1214,-0.1216,-0.1245,-0.1251,-0.1256,0,0,0,0,0,0,-0.0853,-0.0885,-0.0893,-0.0911,-0.0941,-0.0976,-0.0992,-0.1009,-0.104,-0.1045,-0.1065,-0.1073,-0.1116,-0.1129,-0.1113,-0.1188,-0.1169,-0.1173,-0.1187,-0.1193,-0.1198,-0.1187,-0.1114,0,0,0,0,0,-0.0851,-0.0866,-0.09,-0.0915,-0.0931,-0.0964,-0.0983,-0.1002,-0.1032,-0.1046,-0.1073,-0.1102,-0.1133,-0.1157,-0.1181,-0.1229,-0.122,-0.1256,-0.126,-0.1264,-0.1262,-0.127,-0.1274,-0.1225,-0.1225,-0.1225,0,0,-0.0849,-0.0868,-0.0876,-0.0912,-0.0937,-0.097,-0.0975,-0.101,-0.1041,-0.105,-0.1099,-0.1118,-0.1146,-0.1193,-0.1215,-0.121,-0.1274,-0.1267,-0.127,-0.1265,-0.1272,-0.1277,-0.1281,-0.1227,-0.1226,-0.1226,0,0,-0.085,-0.0868,-0.0882,-0.0912,-0.0952,-0.0979,-0.0991,-0.1036,-0.1059,-0.1107,-0.1119,-0.1152,-0.1207,-0.1231,-0.1251,-0.1296,-0.1291,-0.1311,-0.1337,-0.1345,-0.1349,-0.1352,-0.1345,-0.1348,-0.1321,-0.1321,-0.1321,0,-0.0844,-0.0871,-0.0893,-0.092,-0.0949,-0.0985,-0.1018,-0.105,-0.1103,-0.1125,-0.1125,-0.12,-0.1224,-0.128,-0.1296,-0.1307,-0.1303,-0.1315,-0.135,-0.1353,-0.1356,-0.1348,-0.135,-0.1323,-0.1323,-0.1323,-0.1323,0,-0.0857,-0.0889,-0.0903,-0.0949,-0.0982,-0.1019,-0.1067,-0.1103,-0.1136,-0.1166,-0.1221,-0.125,-0.129,-0.1312,-0.1321,-0.1364,-0.1351,-0.1347,-0.1334,-0.1363,-0.1353,-0.1354,-0.1326,-0.1325,-0.1325,-0.1324,0,0,-0.0815,-0.0897,-0.09,-0.0935,-0.1005,-0.1032,-0.1091,-0.115,-0.1186,-0.1232,-0.1273,-0.133,-0.1337,-0.1358,-0.1377,-0.1395,-0.1413,-0.1385,-0.1384,-0.1372,-0.142,-0.1328,-0.1321,-0.1416,-0.1416,-0.1417,-0.1404,0,-0.082,-0.0876,-0.0917,-0.098,-0.1019,-0.1076,-0.1126,-0.1183,-0.1229,-0.1275,-0.1311,-0.1352,-0.1359,-0.1379,-0.1399,-0.141,-0.1419,-0.1416,-0.1398,-0.1397,-0.1308,-0.132,-0.1419,-0.1406,-0.1406,-0.1406,-0.1406,0,-0.081,-0.0859,-0.0918,-0.1008,-0.1028,-0.107,-0.1152,-0.12,-0.1272,-0.1306,-0.1351,-0.1374,-0.1417,-0.1407,-0.1436,-0.1434,-0.1427,-0.1429,-0.1428,-0.133,-0.1308,-0.1372,-0.1409,-0.1409,-0.1408,-0.1408,-0.1408,0,-0.0763,-0.0853,-0.0902,-0.0934,-0.1039,-0.1075,-0.1126,-0.1206,-0.1249,-0.1317,-0.1348,-0.1397,-0.142,-0.1428,-0.1435,-0.1438,-0.1447,-0.1449,-0.1357,-0.135,-0.1423,-0.142,-0.1453,-0.1453,-0.1453,-0.1453,-0.1453,0,-0.0746,-0.0784,-0.0885,-0.0914,-0.0979,-0.1049,-0.1114,-0.1172,-0.1246,-0.1287,-0.135,-0.1377,-0.1426,-0.144,-0.1437,-0.1394,-0.1446,-0.1354,-0.134,-0.1437,-0.1436,-0.1424,-0.142,-0.1452,-0.1452,-0.1453,-0.1453,0,-0.0682,-0.0749,-0.0814,-0.0924,-0.096,-0.0999,-0.1106,-0.1145,-0.1221,-0.1272,-0.1291,-0.1367,-0.1375,-0.1404,-0.1416,-0.1384,-0.1362,-0.1331,-0.1425,-0.1418,-0.1259,-0.1258,-0.1226,-0.1222,-0.1219,-0.1217,-0.1215,0,-0.0657,-0.068,-0.08,-0.0842,-0.0895,-0.0971,-0.102,-0.1119,-0.1156,-0.1252,-0.1259,-0.1302,-0.1336,-0.1278,-0.1317,-0.1293,-0.1282,-0.1266,-0.1268,-0.1245,-0.1236,-0.1239,-0.1242,-0.121,-0.121,-0.1209,-0.1208,0,-0.0599,-0.0637,-0.069,-0.0789,-0.0851,-0.0922,-0.0995,-0.1017,-0.1112,-0.1187,-0.1196,-0.1203,-0.1207,-0.1212,-0.1198,-0.1186,-0.1277,-0.1236,-0.1242,-0.1244,-0.1226,-0.1221,-0.1227,-0.1198,-0.12,-0.1201,-0.1201,0,-0.0546,-0.056,-0.0632,-0.0723,-0.0804,-0.0856,-0.0908,-0.0951,-0.1,-0.1097,-0.1092,-0.1137,-0.1189,-0.1154,-0.1144,-0.1121,-0.1108,-0.1086,-0.1099,-0.1111,-0.1079,-0.1041,-0.0936,0,0,0,0,0,-0.0481,-0.049,-0.0564,-0.0659,-0.0748,-0.0796,-0.0885,-0.0934,-0.102,-0.0994,-0.1042,-0.1038,-0.1028,-0.1055,-0.1005,-0.1092,-0.1114,-0.1031,-0.1096,-0.1143,-0.1155,-0.1128,0,0,0,0,0,0,-0.0435,-0.0468,-0.0527,-0.0601,-0.0652,-0.073,-0.0782,-0.0841,-0.0838,-0.0919,-0.0914,-0.0972,-0.0971,-0.1029,-0.0979,-0.0985,-0.1006,-0.1059,-0.1057,-0.1137,-0.1147,-0.1156,-0.1133,0,0,0,0,0]},{"header":{"parameterUnit":"m.s-1","parameterCategory":2,"la1":30.2991,"la2":30.254,"lo1":-89.0895,"lo2":-89.0444,"dy":0.0017,"dx":0.0017,"nx":28,"ny":28,"refTime":"2023-11-17T03:00:00:Z","depth":"4","parameterNumber":3,"parameterNumberName":"V-component_of_CURRENTS"},"data":[0,0,0,0,0,0,0,0,0,0,0,0,0,0,0,0,0,0,0,0,0,0,0,0,0,0,0,0,0,0,0,0,0,0,0,0,0,0,0,0,0,0,0,0,0,0,0,0,0,0,0,0,0,0,0,0,0,0,0.0029,0.0029,0,0.0037,0.0037,0.0038,0.0067,0.0067,0.0068,0.0068,0.0116,0.0117,0.0117,0,0,0,0,0,0,0,0,0,0,0,0,0,0.0078,0.0077,0.0029,0.0029,0.0029,0.0037,0.0037,0.0038,0.0067,0.0067,0.0068,0.0069,0.0116,0.0117,0.0118,0,0,0,0,0,0,0,0,0,0,0,0,0,0.0069,0.0076,0.0029,0.0044,0.0045,0.0037,0.0037,0.0038,0.0066,0.0067,0.0068,0.0069,0.0115,0.0117,0.0118,0.0108,0,0,0.0121,0.0122,0,0,0,0,0,0,0,0,0.007,0.0068,0.0042,0.0043,0.0044,0.0051,0.0072,0.0063,0.0066,0.0059,0.0068,0.0069,0.0097,0.0099,0.01,0.011,0.0112,0.0121,0.0122,0.0122,0.0123,0,0,0,0,0,0,0,0.007,0.0068,0.0033,0.0041,0.0043,0.0063,0.0063,0.0071,0.0075,0.006,0.0062,0.0061,0.0098,0.0099,0.0101,0.0113,0.0121,0.0122,0.0123,0.0123,0.013,0.013,0,0,0,0,0,0,0.0064,0.0068,0.0033,0.0034,0.0058,0.0062,0.0061,0.0049,0.0074,0.0078,0.006,0.0062,0.0096,0.01,0.0103,0.0115,0.0122,0.0123,0.0124,0.0131,0.013,0.0129,0,0,0,0,0,0,0.0064,0.006,0.0033,0.0051,0.0049,0.0059,0.0046,0.0048,0.0052,0.0073,0.0079,0.0061,0.0097,0.0102,0.011,0.0116,0.0124,0.0125,0.0131,0.013,0.013,0.0124,0,0,0,0,0,0,0.0066,0.006,0.0051,0.005,0.0047,0.0024,0.0045,0.0048,0.0049,0.0052,0.0076,0.0081,0.0098,0.0108,0.0111,0.0118,0.0126,0.0132,0.0131,0.013,0.0125,0.0124,0.0122,0,0,0,0,0,0.0067,0.0049,0.0051,0.0047,0.0034,0.0023,0.0024,0.0036,0.0048,0.0044,0.0062,0.008,0.0104,0.0108,0.0112,0.012,0.0132,0.0131,0.013,0.0126,0.0124,0.0122,0,0,0,0,0,0,0.007,0.005,0.0052,0.003,0.0026,0.0028,0.0025,0.0032,0.0042,0.0049,0.0073,0.0078,0.0086,0.0097,0.0101,0.0116,0.0122,0.0121,0.0117,0.0115,0.0114,0.0115,0.0127,0,0,0,0,0,0.0064,0.0043,0.0035,0.0018,0.0014,0.0019,0.0018,0.0024,0.0031,0.0036,0.0053,0.007,0.0082,0.0095,0.0102,0.0111,0.0139,0.0117,0.0116,0.0115,0.0116,0.0162,0.0165,0.0126,0.0126,0.0126,0,0,0.0064,0.0047,0.0039,0.0017,0.0016,0.0008,0.0021,0.0014,0.0015,0.0039,0.0048,0.0061,0.008,0.0091,0.0096,0.0105,0.014,0.0113,0.0112,0.0115,0.0161,0.0165,0.0169,0.0125,0.0125,0.0125,0,0,0.0046,0.0034,0.0012,0.0005,-0.0006,-0.0002,-0.0006,-0.0006,0.0003,0.0005,0.0027,0.0047,0.0057,0.0083,0.0096,0.0089,0.0124,0.0086,0.0091,0.0135,0.0139,0.0143,0.0188,0.0196,0.0094,0.0094,0.0094,0,0.005,0.0016,0.0007,-0.0013,-0.0019,-0.0008,-0.0023,-0.0014,-0.0008,0.0,0.0005,0.0038,0.0057,0.0088,0.0087,0.0089,0.0116,0.01,0.0136,0.014,0.0144,0.0189,0.0198,0.0094,0.0094,0.0094,0.0094,0,0.0016,-0.0005,-0.0018,-0.004,-0.0046,-0.0058,-0.0051,-0.0047,-0.0035,-0.0021,0.0,0.0028,0.0051,0.0062,0.0074,0.0112,0.0122,0.0124,0.0145,0.0149,0.0195,0.0204,0.0093,0.0093,0.0093,0.0093,0,0,0.0017,-0.0034,-0.0034,-0.0052,-0.0063,-0.0072,-0.0067,-0.0062,-0.0054,-0.0032,-0.0015,0.0019,0.0039,0.0054,0.008,0.0125,0.0182,0.0137,0.0139,0.0189,0.0282,0.0232,0.0238,0.0192,0.0194,0.0195,0.0305,0,-0.0002,-0.0055,-0.0067,-0.0094,-0.0116,-0.0105,-0.0106,-0.0094,-0.0075,-0.0055,-0.0006,0.0013,0.0036,0.0049,0.0098,0.0153,0.0206,0.0152,0.0264,0.0267,0.0229,0.0247,0.0199,0.0312,0.0314,0.0316,0.0317,0,-0.0022,-0.0059,-0.0104,-0.0133,-0.014,-0.0147,-0.0143,-0.0144,-0.0106,-0.0091,-0.0048,-0.0015,0.0052,0.0065,0.0186,0.0149,0.0214,0.0266,0.0271,0.0232,0.0234,0.0306,0.0334,0.0333,0.0332,0.0331,0.033,0,-0.0028,-0.0074,-0.0116,-0.0127,-0.016,-0.0166,-0.0172,-0.0152,-0.0154,-0.0108,-0.0096,-0.0017,0.0023,0.0114,0.021,0.0204,0.0343,0.0348,0.0373,0.037,0.0387,0.0382,0.0442,0.0442,0.0442,0.0442,0.0441,0,-0.0046,-0.007,-0.0124,-0.0147,-0.0182,-0.019,-0.0209,-0.0199,-0.0184,-0.0179,-0.0116,-0.0084,0.0037,0.0125,0.0214,0.0316,0.035,0.0378,0.0395,0.0381,0.0374,0.0395,0.0388,0.0446,0.0445,0.0444,0.0443,0,-0.0045,-0.0083,-0.0131,-0.0177,-0.0193,-0.0216,-0.0249,-0.0262,-0.0238,-0.0226,-0.0212,-0.0122,-0.0017,0.01,0.0255,0.0313,0.0419,0.0449,0.0428,0.0441,0.0422,0.0413,0.0494,0.0493,0.0493,0.0492,0.0491,0,-0.0056,-0.0086,-0.0157,-0.0195,-0.0218,-0.0257,-0.0291,-0.0291,-0.03,-0.0246,-0.0238,-0.0138,-0.007,0.0117,0.0233,0.0395,0.0411,0.0476,0.0449,0.0419,0.0428,0.042,0.0413,0.049,0.049,0.049,0.049,0,-0.0067,-0.0094,-0.0139,-0.0226,-0.0273,-0.0326,-0.0361,-0.037,-0.0359,-0.033,-0.0253,-0.0153,-0.0039,0.0102,0.0218,0.0337,0.0436,0.0469,0.0472,0.0446,0.0415,0.0423,0.0416,0.0487,0.0487,0.0488,0.0488,0,-0.0068,-0.0103,-0.0175,-0.025,-0.032,-0.0381,-0.0394,-0.0397,-0.04,-0.033,-0.0298,-0.0167,-0.0076,0.0072,0.0185,0.0281,0.0307,0.0349,0.0358,0.0362,0.0275,0.0213,0.0243,0,0,0,0,0,-0.006,-0.0113,-0.0198,-0.0291,-0.0367,-0.0409,-0.0442,-0.0445,-0.042,-0.0375,-0.0337,-0.0231,-0.0061,0.0023,0.0109,0.0155,0.031,0.0259,0.0359,0.0473,0.0476,0.0389,0,0,0,0,0,0,-0.0062,-0.0125,-0.0198,-0.032,-0.0389,-0.047,-0.0493,-0.0475,-0.0442,-0.0389,-0.03,-0.022,-0.0061,-0.0119,0.0106,0.0137,0.0211,0.0347,0.0349,0.0471,0.0474,0.0476,0.0388,0,0,0,0,0]}]]